[[{"header":{"parameterUnit":"m.s-1","parameterCategory":1,"la1":30.2991,"la2":30.254,"lo1":-89.0895,"lo2":-89.0444,"dy":0.0017,"dx":0.0017,"nx":28,"ny":28,"refTime":"2024-12-08T09:00:00:Z","depth":0,"parameterNumber":2,"parameterNumberName":"U-component_of_WINDS"},"data":[0,0,0,0,0,0,0,0,0,0,0,0,0,0,0,0,0,0,0,0,0,0,0,0,0,0,0,0,0,0,0,0,0,0,0,0,0,0,0,0,0,0,0,0,0,0,0,0,0,0,0,0,0,0,0,0,0,0,-4.846,-4.846,0,-4.8483,-4.8483,-4.8483,-4.8311,-4.8306,-4.8301,-4.8296,-4.8321,-4.8326,-4.8331,0,0,0,0,0,0,0,0,0,0,0,0,0,-4.8269,-4.8273,-4.846,-4.846,-4.8461,-4.8483,-4.8483,-4.8483,-4.8312,-4.8306,-4.83,-4.8294,-4.832,-4.8326,-4.8332,0,0,0,0,0,0,0,0,0,0,0,0,0,-4.8328,-4.8275,-4.846,-4.8378,-4.837,-4.8483,-4.8483,-4.8483,-4.8313,-4.8305,-4.8298,-4.8291,-4.8318,-4.8325,-4.8333,-4.8526,0,0,-4.8356,-4.836,0,0,0,0,0,0,0,0,-4.8325,-4.8335,-4.8389,-4.8383,-4.8376,-4.8386,-4.8424,-4.8498,-4.8315,-4.8335,-4.8296,-4.8288,-4.8349,-4.8354,-4.8374,-4.8527,-4.8528,-4.8357,-4.8362,-4.8365,-4.8367,0,0,0,0,0,0,0,-4.8321,-4.8333,-4.8469,-4.839,-4.8382,-4.834,-4.834,-4.8437,-4.8382,-4.8332,-4.832,-4.8325,-4.8344,-4.8367,-4.8373,-4.8528,-4.8357,-4.8364,-4.8369,-4.8372,-4.8839,-4.8846,0,0,0,0,0,0,-4.8328,-4.8331,-4.8468,-4.847,-4.8332,-4.8349,-4.8349,-4.839,-4.8381,-4.8372,-4.8331,-4.8317,-4.8357,-4.8364,-4.8373,-4.8597,-4.8365,-4.8372,-4.8377,-4.8831,-4.884,-4.8849,0,0,0,0,0,0,-4.8324,-4.8342,-4.8467,-4.8397,-4.841,-4.836,-4.8407,-4.8395,-4.8417,-4.838,-4.8369,-4.8365,-4.8352,-4.8363,-4.8488,-4.8595,-4.8376,-4.8383,-4.8822,-4.8834,-4.8844,-4.9047,0,0,0,0,0,0,-4.832,-4.8341,-4.8414,-4.84,-4.8414,-4.8583,-4.8414,-4.84,-4.8431,-4.8412,-4.8408,-4.8401,-4.8347,-4.8478,-4.8496,-4.8602,-4.8389,-4.8812,-4.8827,-4.8841,-4.903,-4.9064,-4.9092,0,0,0,0,0,-4.8313,-4.8471,-4.8419,-4.8436,-4.8504,-4.8589,-4.8597,-4.8531,-4.844,-4.8513,-4.8488,-4.8401,-4.8581,-4.8492,-4.8511,-4.8621,-4.8805,-4.8823,-4.884,-4.9016,-4.9057,-4.9092,0,0,0,0,0,0,-4.85,-4.8468,-4.8409,-4.8567,-4.8582,-4.856,-4.8649,-4.8577,-4.8619,-4.86,-4.8517,-4.8518,-4.8657,-4.8652,-4.8553,-4.8806,-4.8677,-4.8699,-4.8805,-4.8843,-4.8874,-4.8871,-4.8395,0,0,0,0,0,-4.856,-4.8631,-4.8599,-4.8741,-4.8752,-4.87,-4.8735,-4.8682,-4.8695,-4.87,-4.8685,-4.8701,-4.876,-4.8802,-4.8855,-4.9029,-4.9025,-4.9114,-4.9145,-4.9171,-4.919,-4.928,-4.9319,-4.8906,-4.8906,-4.8905,0,0,-4.8683,-4.8674,-4.8725,-4.8779,-4.8784,-4.886,-4.8706,-4.8793,-4.8848,-4.8714,-4.8831,-4.8821,-4.8833,-4.8983,-4.9049,-4.8983,-4.9304,-4.9193,-4.9214,-4.9219,-4.9302,-4.9341,-4.9376,-4.8918,-4.8916,-4.8914,0,0,-4.8947,-4.8948,-4.9065,-4.9074,-4.9084,-4.9048,-4.9077,-4.9065,-4.9053,-4.9169,-4.9069,-4.9134,-4.9239,-4.9251,-4.9271,-4.9539,-4.9459,-4.9559,-4.9721,-4.9809,-4.9842,-4.987,-4.9964,-4.9999,-4.9579,-4.9579,-4.958,0,-4.9099,-4.9209,-4.9135,-4.9228,-4.9255,-4.9136,-4.9254,-4.9266,-4.9293,-4.9314,-4.924,-4.9368,-4.9368,-4.9519,-4.9584,-4.9605,-4.9634,-4.9558,-4.9843,-4.9871,-4.9896,-4.9985,-5.002,-4.9591,-4.959,-4.9589,-4.9587,0,-4.9395,-4.9473,-4.9566,-4.9594,-4.9631,-4.9737,-4.9679,-4.9726,-4.9671,-4.9643,-4.9762,-4.9758,-4.9807,-4.984,-4.9787,-4.9983,-4.9941,-4.9857,-4.9725,-4.9949,-5.003,-5.0064,-4.9608,-4.9604,-4.96,-4.9597,0,0,-4.9776,-4.9761,-4.9797,-4.9807,-4.9809,-4.9868,-4.9968,-5.0015,-5.0056,-5.0079,-5.016,-5.0252,-5.0173,-5.0196,-5.0144,-5.0222,-5.0432,-5.0127,-5.0126,-5.0182,-5.0645,-5.0707,-5.0748,-5.038,-5.0386,-5.0391,-5.0643,0,-5.0031,-5.02,-5.0136,-5.031,-5.038,-5.0268,-5.0354,-5.0365,-5.0342,-5.0398,-5.0373,-5.0438,-5.033,-5.0343,-5.0415,-5.0391,-5.0523,-5.0372,-5.0453,-5.0457,-5.0452,-5.079,-5.0857,-5.1095,-5.0675,-5.068,-5.0684,0,-5.0351,-5.0386,-5.0566,-5.0554,-5.0581,-5.0661,-5.0698,-5.0753,-5.0763,-5.0741,-5.0766,-5.0697,-5.0794,-5.0664,-5.0795,-5.0694,-5.0724,-5.0717,-5.0724,-5.0728,-5.0583,-5.0801,-5.117,-5.1205,-5.0734,-5.073,-5.0727,0,-5.0608,-5.07,-5.0819,-5.0832,-5.0822,-5.088,-5.0879,-5.0881,-5.0913,-5.0947,-5.0966,-5.1012,-5.1036,-5.1072,-5.1017,-5.0927,-5.1156,-5.1022,-5.1139,-5.1141,-5.1191,-5.1188,-5.1567,-5.1214,-5.1214,-5.1213,-5.1212,0,-5.0898,-5.1013,-5.0934,-5.1008,-5.1132,-5.1058,-5.1184,-5.117,-5.1173,-5.1241,-5.1148,-5.1214,-5.1138,-5.1197,-5.1155,-5.1269,-5.1282,-5.1266,-5.1253,-5.1273,-5.1275,-5.129,-5.1271,-5.1222,-5.122,-5.1219,-5.1217,0,-5.1206,-5.1158,-5.128,-5.1261,-5.1258,-5.1351,-5.1334,-5.14,-5.1371,-5.1458,-5.1475,-5.1429,-5.1493,-5.1442,-5.1506,-5.1477,-5.1628,-5.1592,-5.1624,-5.1613,-5.1733,-5.1722,-5.2133,-5.2183,-5.1801,-5.1805,-5.1808,0,-5.1393,-5.1478,-5.1467,-5.1506,-5.151,-5.1574,-5.1606,-5.1537,-5.1574,-5.1591,-5.1656,-5.1712,-5.1753,-5.1862,-5.1834,-5.1882,-5.1846,-5.1987,-5.1852,-5.1869,-5.1845,-5.184,-5.1847,-5.2013,-5.2018,-5.2022,-5.2025,0,-5.173,-5.1702,-5.1751,-5.1792,-5.1833,-5.1862,-5.1884,-5.1922,-5.1851,-5.1898,-5.1962,-5.1994,-5.2058,-5.2115,-5.2154,-5.2152,-5.2077,-5.2068,-5.2097,-5.2117,-5.2131,-5.2123,-5.1696,-5.2058,-5.2055,-5.2052,-5.205,-5.2049,-5.1981,-5.205,-5.2053,-5.2111,-5.212,-5.2143,-5.2204,-5.2182,-5.2234,-5.228,-5.2237,-5.2314,-5.2321,-5.2364,-5.2372,-5.2431,-5.2373,-5.2416,-5.2426,-5.2437,-5.2453,-5.2124,-5.2438,-5.2437,-5.2436,-5.2435,-5.2435,0,-5.231,-5.2306,-5.2361,-5.2394,-5.2439,-5.2365,-5.2385,-5.2428,-5.2497,-5.2509,-5.2551,-5.2625,-5.268,-5.2656,-5.2704,-5.2756,-5.2723,-5.2771,-5.2765,-5.2765,-5.2504,-5.2473,-5.2797,-5.2797,-5.2797,-5.2797,-5.2796,-5.2796,-5.2487,-5.26,-5.2572,-5.2689,-5.2684,-5.2758,-5.2776,-5.2797,-5.2806,-5.2892,-5.2936,-5.2921,-5.2918,-5.2965,-5.3012,-5.3003,-5.3024,-5.3085,-5.3064,-5.282,-5.2784,-5.275,-5.272,-5.309,-5.3091,-5.3319,-5.3322,-5.3323]},{"header":{"parameterUnit":"m.s-1","parameterCategory":1,"la1":30.2991,"la2":30.254,"lo1":-89.0895,"lo2":-89.0444,"dy":0.0017,"dx":0.0017,"nx":28,"ny":28,"refTime":"2024-12-08T09:00:00:Z","depth":0,"parameterNumber":3,"parameterNumberName":"V-component_of_WINDS"},"data":[0,0,0,0,0,0,0,0,0,0,0,0,0,0,0,0,0,0,0,0,0,0,0,0,0,0,0,0,0,0,0,0,0,0,0,0,0,0,0,0,0,0,0,0,0,0,0,0,0,0,0,0,0,0,0,0,0,0,0.3799,0.3799,0,0.3744,0.3743,0.3743,0.3676,0.3675,0.3674,0.3673,0.3615,0.3614,0.3613,0,0,0,0,0,0,0,0,0,0,0,0,0,0.3846,0.3846,0.3799,0.3799,0.3798,0.3744,0.3743,0.3743,0.3676,0.3675,0.3674,0.3672,0.3615,0.3614,0.3613,0,0,0,0,0,0,0,0,0,0,0,0,0,0.3812,0.3846,0.3799,0.3758,0.3754,0.3744,0.3743,0.3742,0.3676,0.3675,0.3673,0.3672,0.3615,0.3614,0.3613,0.3639,0,0,0.3611,0.361,0,0,0,0,0,0,0,0,0.3814,0.381,0.3765,0.3761,0.3756,0.3715,0.3738,0.3708,0.3677,0.3706,0.3673,0.3671,0.3649,0.3645,0.3638,0.3636,0.3633,0.361,0.361,0.361,0.3609,0,0,0,0,0,0,0,0.3817,0.3812,0.3777,0.3765,0.3759,0.3742,0.3736,0.3732,0.3687,0.3703,0.3698,0.3693,0.3647,0.3639,0.3637,0.3633,0.361,0.361,0.3609,0.3609,0.3649,0.3651,0,0,0,0,0,0,0.3825,0.3815,0.3779,0.3776,0.3782,0.3743,0.3735,0.373,0.3687,0.3679,0.3694,0.369,0.3642,0.3638,0.3634,0.3662,0.361,0.3609,0.3608,0.3648,0.365,0.3651,0,0,0,0,0,0,0.3827,0.3823,0.3781,0.3794,0.3787,0.3744,0.3738,0.373,0.3723,0.368,0.3671,0.3695,0.364,0.3635,0.3638,0.3659,0.3608,0.3607,0.3646,0.3648,0.365,0.3718,0,0,0,0,0,0,0.3828,0.3824,0.3833,0.3795,0.3787,0.3787,0.3739,0.373,0.3721,0.3715,0.3679,0.3671,0.3639,0.364,0.3638,0.3657,0.3607,0.3644,0.3647,0.365,0.3713,0.3722,0.3729,0,0,0,0,0,0.383,0.3853,0.3834,0.383,0.3798,0.3788,0.3784,0.3747,0.3723,0.3732,0.3705,0.3672,0.3657,0.3641,0.3638,0.3657,0.3642,0.3646,0.3649,0.371,0.372,0.3729,0,0,0,0,0,0,0.3895,0.3848,0.3825,0.3837,0.3817,0.3777,0.3787,0.3759,0.3745,0.374,0.3693,0.3686,0.3695,0.3676,0.3659,0.368,0.3645,0.3648,0.3692,0.3702,0.371,0.3714,0.3606,0,0,0,0,0,0.391,0.3907,0.3866,0.388,0.3871,0.3832,0.3826,0.3799,0.3776,0.3768,0.374,0.3719,0.371,0.3704,0.3693,0.371,0.3702,0.3722,0.373,0.3737,0.374,0.3749,0.3757,0.3663,0.3663,0.3663,0,0,0.3943,0.3916,0.3917,0.3893,0.3874,0.3872,0.3825,0.3824,0.3821,0.3767,0.3769,0.3748,0.3722,0.3732,0.3735,0.3717,0.3764,0.3741,0.3747,0.3747,0.3753,0.3762,0.377,0.3666,0.3665,0.3665,0,0,0.4,0.398,0.399,0.3973,0.3946,0.3919,0.3922,0.3886,0.3871,0.3872,0.3831,0.3828,0.3812,0.3795,0.3785,0.3837,0.3807,0.3834,0.3877,0.3886,0.3893,0.3899,0.3919,0.3927,0.3838,0.3838,0.3838,0,0.4044,0.4039,0.3999,0.4001,0.3992,0.3943,0.3954,0.3938,0.3909,0.3904,0.3883,0.3864,0.3842,0.3848,0.3862,0.3854,0.3856,0.3839,0.3895,0.3901,0.3907,0.3925,0.3932,0.3842,0.3841,0.3841,0.3841,0,0.4094,0.4091,0.4103,0.4077,0.4068,0.4075,0.4036,0.4032,0.4006,0.3982,0.3984,0.3956,0.394,0.3939,0.3913,0.3942,0.3931,0.3904,0.3868,0.392,0.3936,0.3943,0.3847,0.3846,0.3845,0.3844,0,0,0.4191,0.4143,0.4148,0.4137,0.4104,0.41,0.4104,0.4089,0.4087,0.4068,0.4071,0.4059,0.4034,0.4022,0.3994,0.4001,0.4046,0.3973,0.3972,0.3988,0.4077,0.4099,0.4108,0.4026,0.4027,0.4028,0.408,0,0.4243,0.4248,0.4213,0.4227,0.4225,0.4179,0.4182,0.4163,0.414,0.4134,0.4108,0.4102,0.4068,0.4061,0.4066,0.404,0.4064,0.4035,0.4028,0.4028,0.4037,0.4116,0.4139,0.419,0.4086,0.4087,0.4088,0,0.4305,0.4291,0.4306,0.4273,0.4271,0.4275,0.4258,0.4253,0.4229,0.4212,0.42,0.4168,0.4169,0.4135,0.4137,0.4118,0.4113,0.4099,0.41,0.4099,0.4062,0.4118,0.4205,0.4213,0.4097,0.4097,0.4096,0,0.4376,0.4361,0.4368,0.4359,0.432,0.4324,0.4308,0.4284,0.4277,0.4262,0.4257,0.4242,0.4234,0.4223,0.4188,0.4166,0.4195,0.4157,0.4181,0.4182,0.4189,0.419,0.4278,0.4185,0.4184,0.4184,0.4184,0,0.4439,0.445,0.4399,0.4404,0.4415,0.4374,0.4386,0.4365,0.4344,0.4343,0.4302,0.4302,0.4256,0.4251,0.4223,0.4229,0.4226,0.4212,0.4205,0.4216,0.4218,0.4213,0.4209,0.4186,0.4186,0.4185,0.4185,0,0.452,0.4486,0.4491,0.4455,0.4446,0.4456,0.4425,0.4427,0.4402,0.4402,0.44,0.4361,0.4353,0.4317,0.43,0.4281,0.4297,0.4282,0.4306,0.4301,0.4328,0.4326,0.4416,0.4427,0.4326,0.4327,0.4328,0,0.4563,0.4571,0.4536,0.4533,0.4519,0.4515,0.4508,0.4468,0.4462,0.4437,0.4443,0.4432,0.4421,0.4411,0.4381,0.4368,0.4353,0.4385,0.435,0.4362,0.4354,0.4355,0.4356,0.4393,0.4394,0.4395,0.4396,0,0.4643,0.4626,0.4618,0.4605,0.4598,0.4585,0.457,0.457,0.4526,0.4522,0.4514,0.4506,0.4489,0.4479,0.4461,0.4444,0.4413,0.4407,0.4412,0.4425,0.4439,0.4433,0.4327,0.4406,0.4405,0.4404,0.4403,0.4403,0.4707,0.4712,0.4689,0.4682,0.4666,0.4653,0.4654,0.463,0.4623,0.4607,0.4583,0.4579,0.4556,0.4529,0.4514,0.451,0.4492,0.4499,0.4501,0.4504,0.451,0.4439,0.4507,0.4506,0.4506,0.4506,0.4505,0,0.4786,0.4769,0.4763,0.4743,0.4738,0.4709,0.4691,0.4688,0.4685,0.4666,0.4657,0.4649,0.4639,0.4608,0.4595,0.4598,0.4583,0.4596,0.4596,0.4592,0.4526,0.4524,0.4608,0.4608,0.4608,0.4608,0.4608,0.4608,0.4827,0.4835,0.4815,0.4815,0.4797,0.4793,0.4785,0.4773,0.4758,0.4751,0.4743,0.4723,0.4699,0.4685,0.4674,0.4665,0.4663,0.4681,0.4667,0.4607,0.4597,0.4588,0.4585,0.468,0.468,0.4734,0.4734,0.4735]}]]